Location: Hawks Ness
(60.2333°N, 1.1667°W)
Time: 09:12:41
(UTC+00:00)

NOSS 2-2 (E) - Pass Details

Date: 22 October 2019
Orbit: 489 x 1718 km, 63.3° (Epoch: 01 November)

Event Time Altitude Azimuth Distance (km) Brightness Sun altitude
Exits shadow 04:55:34 29° 247° (WSW) 1,088 4.3 -16.1°
Maximum altitude 04:57:40 86° 335° (NNW) 649 3.6 -15.9°
Drops below altitude 10° 05:02:56 10° 65° (ENE) 2,367 7.7 -15.2°
Sets 05:05:45 0° 66° (ENE) 3,500 8.8 -14.9°
